Temperature
22 22 22 22 19 16 19 20 21 22 23 23 23 23 21 21 21 21 21 22 21 21 20 20 19 19 19 19 20 20 20 20 20 20 19 19 19 19 18 18 18 18 18 18 18 18 18 18 18
22 22 22 21 18 19 19 20 21 22 23 23 23 23 22 21 21 22 22 21 21 21 20 20 19 19 19 19 19 19 19 19 19 19 19 19 18 18 18 18 18 18 18 18 18 18 18 18 18
22 22 22 17 17 19 22 23 22 23 24 24 23 23 22 22 22 22 22 21 21 21 20 20 19 19 19 19 19 19 19 19 19 19 19 19 19 18 18 18 18 18 18 18 18 18 18 18 18
22 22 21 16 18 18 21 23 23 24 24 24 23 22 22 22 22 22 22 21 21 21 20 20 19 19 19 19 19 19 19 19 19 19 19 19 19 18 18 18 18 18 18 18 18 18 18 18 18
22 21 17 16 18 19 20 23 24 24 24 24 23 21 21 21 22 22 22 21 21 21 20 20 19 19 19 19 19 19 19 19 19 19 19 19 19 18 18 18 18 18 18 18 18 18 18 18 18
21 17 15 16 18 20 21 24 24 24 24 24 23 21 21 21 22 22 21 21 21 21 20 20 19 19 19 19 19 19 19 19 19 19 19 19 18 18 18 18 18 18 18 18 18 17 18 18 18
19 15 16 18 19 21 23 24 24 23 23 23 23 20 20 21 21 21 21 21 20 20 20 20 19 20 20 20 20 20 19 19 19 19 19 18 18 18 18 18 18 18 18 18 18 18 18 18 18
20 16 18 18 20 22 24 24 24 24 23 24 24 20 20 22 21 21 21 20 20 20 20 20 19 19 20 20 20 20 19 19 19 19 18 18 18 18 18 18 17 17 17 17 17 18 18 18 18
20 16 17 19 20 22 23 23 24 24 24 24 24 23 24 22 21 21 20 20 20 19 19 19 19 20 20 20 20 20 19 19 19 18 18 18 18 18 18 17 17 17 17 17 17 18 18 18 18
19 16 17 19 21 23 23 23 24 24 23 23 23 24 24 22 21 21 21 20 20 20 20 19 20 20 20 20 20 20 19 19 19 18 18 18 18 17 17 17 17 17 17 17 18 17 17 17 17
18 17 19 21 23 23 23 24 25 24 22 24 24 24 24 22 21 21 21 21 21 21 20 20 20 20 20 20 20 19 19 19 18 18 18 17 17 17 17 17 17 17 17 17 17 17 17 17 17
17 18 20 22 24 23 23 24 24 24 26 27 26 26 24 22 22 22 22 22 21 21 21 21 21 20 20 20 20 20 19 19 18 18 17 17 17 17 17 17 17 17 17 17 17 17 17 17 17
19 19 22 23 23 23 23 23 24 25 27 27 26 24 24 24 23 23 23 22 22 21 21 21 21 21 20 20 20 20 19 19 19 18 17 17 17 17 17 17 17 17 17 17 17 17 17 17 17
20 20 21 22 23 23 23 23 24 26 27 26 25 24 24 24 24 23 23 22 22 22 22 22 22 21 21 20 20 20 19 19 18 18 18 17 17 17 17 17 17 17 17 17 17 17 17 17 16
20 20 20 21 22 23 23 24 23 27 26 25 24 24 23 23 23 24 24 23 23 22 22 22 22 21 21 20 20 19 19 19 18 18 17 17 17 17 16 16 17 17 16 16 16 16 16 16 16
19 20 20 21 21 23 24 24 24 26 24 23 23 22 22 22 23 24 24 24 23 23 22 22 22 21 21 20 20 19 19 18 18 17 17 17 16 16 16 16 16 16 16 16 16 16 16 15 15
17 18 20 21 21 22 23 23 23 25 23 22 22 22 22 21 22 23 24 24 23 23 22 22 21 21 21 20 20 19 18 18 18 17 17 17 16 16 16 16 16 16 16 16 15 15 15 15 14
18 19 20 21 21 21 21 21 21 23 22 22 22 22 22 22 23 24 24 23 23 23 22 22 21 21 20 20 19 19 18 18 17 17 17 16 16 16 16 16 16 15 15 15 14 14 14 14 14
19 19 19 19 20 21 21 20 20 22 21 21 21 21 22 22 25 24 23 23 22 22 22 21 21 21 20 20 19 18 18 17 17 17 17 16 16 16 16 15 15 15 14 14 13 13 13 14 14
18 19 19 19 20 21 21 20 20 20 21 22 22 22 22 22 23 22 23 22 22 22 22 21 21 20 20 20 19 18 18 17 17 17 16 16 16 15 15 15 14 14 13 13 13 13 13 13 13
18 18 19 19 18 19 20 19 19 20 21 23 23 23 23 23 23 23 23 22 22 22 22 21 21 20 20 19 19 18 17 17 16 16 15 15 15 14 14 14 13 13 13 13 13 13 13 12 12
18 18 19 19 19 17 19 18 19 19 18 19 21 22 22 23 23 23 23 22 22 22 21 20 20 19 19 19 18 18 17 16 15 15 14 14 14 14 13 13 12 12 12 12 12 12 12 11 10
18 19 19 19 18 17 17 17 17 17 19 19 18 19 20 22 23 23 22 21 21 20 20 19 19 18 18 18 18 17 17 16 15 14 13 13 13 13 12 12 12 12 11 11 11 11 10 9 8
19 19 17 14 15 16 17 16 17 16 17 17 17 16 17 19 20 20 19 19 19 18 18 18 17 17 16 16 16 16 15 15 14 13 13 12 12 12 11 11 11 11 10 10 9 9 8 7 7
19 17 15 16 15 15 17 17 16 17 17 16 15 15 15 16 17 17 17 17 17 16 16 16 16 16 16 15 15 15 14 14 13 13 12 12 11 11 10 10 9 9 9 8 8 7 7 6 6
17 16 16 16 16 16 17 17 16 17 16 16 15 15 15 15 15 15 15 15 15 15 15 15 15 15 15 15 15 14 13 13 12 11 11 10 10 9 9 8 8 8 7 7 6 6 6 6 5
17 16 17 15 16 16 16 16 16 16 16 16 15 14 14 14 14 14 14 14 15 15 15 15 15 15 15 15 14 13 12 12 11 10 10 9 9 8 8 7 7 7 6 6 6 6 5 5 5
18 16 13 14 15 16 17 16 15 16 16 15 15 14 14 14 14 14 14 14 14 14 14 14 14 14 14 13 12 12 11 11 10 9 8 8 7 7 7 7 6 6 6 6 5 5 5 5 5
18 17 15 13 14 15 16 15 15 15 15 15 14 13 13 13 13 13 13 13 14 13 13 13 13 13 12 12 11 11 10 9 9 8 8 7 7 7 6 6 6 6 5 5 5 5 4 4 4
18 17 14 16 15 14 15 14 14 14 14 14 13 12 12 12 12 12 13 13 13 13 12 12 12 11 11 10 10 9 9 8 8 7 7 6 6 6 6 5 5 5 5 5 4 4 4 3 3
Wind_Speed
2 6 3 3 6 5 4 6 4 3 2 2 5 6 6 4 4 3 1 8 12 13 14 17 19 19 19 19 18 18 18 17 17 17 17 16 16 15 15 14 13 12 11 10 10 9 9 10 10
3 4 3 5 5 1 7 6 6 5 3 4 4 4 4 2 1 4 5 7 12 13 13 17 19 19 19 19 19 18 18 17 16 16 15 15 14 14 13 12 12 11 10 10 9 8 8 8 8
3 4 5 5 4 6 6 5 4 1 5 4 3 3 2 3 4 6 6 12 12 11 13 17 20 19 18 18 18 18 18 17 16 15 15 14 13 13 13 12 11 11 10 9 8 7 6 7 7
4 5 6 5 6 7 7 5 1 3 2 3 5 4 2 3 7 7 12 14 13 10 13 17 20 19 19 18 18 17 17 16 16 15 14 13 13 12 12 11 11 10 9 8 7 6 5 5 6
5 5 4 1 7 7 7 7 4 4 4 4 5 4 1 2 7 13 15 14 14 10 12 16 19 19 19 19 18 17 16 16 15 15 14 13 12 11 10 10 9 9 8 7 6 5 4 4 5
5 5 4 5 7 7 7 7 5 6 4 5 7 5 2 4 10 13 13 12 11 12 11 15 19 20 19 19 18 17 16 16 15 14 13 12 11 10 9 9 9 8 7 6 4 3 3 3 3
5 6 6 6 5 6 5 4 7 8 7 8 10 6 3 5 10 13 11 10 9 9 10 11 15 18 19 19 18 17 16 16 15 13 12 11 10 10 10 9 9 7 6 5 3 2 1 1 2
6 6 5 4 5 5 3 1 3 8 7 6 9 8 7 9 10 11 10 8 8 8 9 9 12 14 15 16 18 17 16 15 14 13 12 11 10 10 10 9 8 7 6 5 3 2 1 2 3
5 4 4 6 6 5 2 2 1 3 7 5 6 7 7 14 16 13 8 7 8 10 9 8 9 12 14 14 16 17 16 15 14 12 12 11 9 9 8 8 8 7 6 5 4 2 2 3 4
5 5 8 6 5 3 4 2 3 5 5 3 3 4 12 18 18 17 15 14 14 14 13 10 9 10 12 13 13 13 13 13 12 11 11 10 9 8 7 8 8 8 6 5 4 2 2 3 4
8 8 6 6 6 4 5 5 3 9 6 10 11 14 21 19 18 18 18 16 16 15 14 13 12 10 11 9 10 10 10 11 11 11 11 9 8 6 5 5 5 5 4 2 1 2 3 4 4
6 6 6 5 3 4 5 4 3 8 12 11 14 20 25 24 23 21 20 18 14 13 16 14 14 12 11 9 9 10 9 9 9 11 11 9 6 5 4 4 4 3 2 1 1 3 4 4 4
6 6 6 8 9 6 6 7 6 10 10 6 13 18 24 25 23 19 16 15 14 16 17 15 15 14 11 8 7 9 9 10 12 11 11 10 6 4 4 3 3 2 1 1 2 3 5 6 8
5 5 6 7 8 5 5 6 4 10 5 12 17 21 23 23 22 17 16 16 17 17 18 16 17 15 12 11 9 8 10 10 11 11 11 11 9 6 4 2 2 1 1 2 5 6 7 7 8
3 4 7 6 4 4 2 4 6 7 7 13 18 21 20 19 18 20 21 19 18 16 16 16 17 15 13 12 10 7 8 9 8 9 11 10 9 7 5 3 2 4 6 9 9 9 8 7 7
1 2 2 6 3 3 3 6 7 5 9 12 15 17 18 18 20 20 18 15 15 14 14 15 16 14 13 11 8 5 7 7 6 8 8 9 9 7 5 4 4 8 10 9 6 5 6 6 5
5 1 2 5 3 3 2 6 7 5 9 12 14 16 17 16 16 17 17 17 15 15 14 14 13 13 12 9 7 5 4 4 5 6 6 7 7 8 8 6 7 10 9 7 5 5 4 4 4
4 3 2 4 4 6 4 7 9 5 10 13 13 15 16 18 24 19 16 15 14 13 12 13 11 10 10 8 6 4 4 3 4 5 6 9 10 12 13 10 10 10 7 6 5 6 5 4 2
4 2 3 6 5 3 6 9 10 5 6 10 11 14 17 23 22 14 13 13 13 13 13 13 12 11 11 8 7 5 4 3 4 5 10 12 14 15 14 10 9 8 6 5 4 3 6 6 3
4 3 4 7 4 2 6 10 11 6 6 9 12 16 19 20 15 13 13 13 15 15 14 13 13 11 10 8 5 4 6 6 5 5 10 13 15 15 14 10 7 6 6 5 4 3 3 3 4
6 5 5 6 7 6 4 10 10 7 2 6 8 11 14 18 18 16 15 15 13 14 15 13 12 10 10 10 9 8 7 5 4 6 6 8 14 14 13 12 10 7 5 5 4 4 5 3 3
6 7 6 3 2 5 2 5 10 8 9 6 6 7 10 12 14 14 13 11 11 10 9 10 10 10 10 11 11 11 7 5 4 4 6 8 11 13 12 12 11 8 5 6 5 4 4 4 3
8 5 5 4 4 3 2 3 10 7 8 10 10 9 9 9 8 8 6 6 6 8 9 9 10 10 9 8 9 9 9 7 8 7 8 8 7 10 11 12 10 7 5 6 6 5 4 3 3
5 5 6 5 5 2 6 6 7 4 6 11 12 12 10 5 3 7 9 11 11 11 11 11 12 11 10 9 7 8 12 13 12 10 8 7 6 5 7 10 9 7 6 5 5 5 5 3 3
5 5 4 4 2 7 4 5 6 4 6 7 10 11 9 9 11 13 13 13 12 12 12 12 13 12 10 10 8 8 10 11 11 9 8 8 6 5 5 6 5 5 6 6 5 4 3 3 2
7 10 8 6 6 6 1 6 2 4 6 7 8 9 11 13 13 13 13 12 12 12 12 11 12 11 10 11 11 9 9 8 7 8 7 7 6 5 5 6 6 6 5 5 5 3 3 3 3
8 8 9 8 4 2 5 2 0 4 6 8 10 11 12 12 13 13 13 13 12 12 12 11 11 10 11 12 12 12 10 9 9 8 7 6 6 5 6 6 6 6 7 7 6 5 5 4 4
6 8 7 8 8 6 4 3 3 2 3 6 8 10 10 11 12 13 12 13 12 13 13 13 13 13 12 11 10 10 10 9 10 9 9 7 6 6 7 7 7 7 8 8 6 6 5 5 4
4 4 5 5 5 8 5 5 1 3 2 6 7 8 9 10 11 11 12 12 13 13 13 13 13 13 12 11 11 11 10 10 10 10 9 8 8 7 8 8 8 7 7 6 6 6 5 5 5
5 4 6 5 4 4 5 4 4 1 6 9 9 8 9 10 10 11 11 12 11 12 12 12 11 12 11 11 11 11 11 11 11 10 9 9 9 7 7 7 7 7 6 5 5 5 5 5 5
Wind_Direction
178 138 116 73 49 38 282 264 252 274 229 191 139 135 150 161 191 223 116 134 133 139 149 153 152 148 145 143 140 135 130 127 124 123 124 125 126 127 127 128 127 126 124 119 112 103 94 89 85
163 135 77 62 85 330 277 256 259 239 198 120 107 102 120 159 124 127 133 137 136 137 143 151 151 148 146 144 140 137 135 133 131 129 128 129 129 130 132 135 137 137 136 132 127 119 108 97 90
142 83 89 80 141 197 247 253 239 193 143 126 114 77 136 173 155 162 157 140 133 134 142 153 151 148 145 143 141 139 138 137 136 136 136 137 138 140 144 148 150 151 150 147 143 134 119 102 90
96 56 58 95 219 229 233 249 226 126 117 97 114 98 69 160 162 159 143 143 136 137 146 155 152 150 148 146 144 142 141 141 143 145 146 147 149 151 154 157 158 158 157 154 147 136 118 98 84
63 81 83 182 241 247 240 248 233 184 169 136 120 124 44 93 123 138 147 150 147 145 149 155 154 152 151 150 149 147 147 147 149 151 154 155 157 159 159 160 161 162 162 162 158 146 121 96 79
62 77 118 223 248 258 256 228 197 207 184 138 129 138 221 149 140 151 152 151 150 150 150 157 159 157 156 155 155 153 154 154 155 157 158 160 162 164 164 164 167 169 171 169 164 146 112 81 58
117 123 179 212 248 268 259 211 191 198 188 172 143 146 223 186 168 153 148 142 143 150 154 158 163 162 162 161 160 159 160 161 161 162 162 165 168 172 174 174 174 177 177 175 171 153 92 30 9
140 130 184 222 229 253 273 305 221 178 186 157 138 165 203 193 158 141 131 133 144 156 164 163 163 162 163 165 168 167 167 167 168 169 172 177 181 184 186 184 183 184 186 190 195 204 271 323 332
112 98 203 221 210 242 286 349 274 165 132 146 171 191 200 151 145 140 135 141 161 175 178 173 166 165 165 168 174 173 173 174 175 180 185 186 188 191 194 192 193 195 198 204 211 228 279 317 335
126 170 222 223 217 254 304 269 209 131 134 165 171 150 142 150 159 163 170 176 181 186 187 182 177 173 170 174 175 173 174 177 180 185 189 187 188 192 196 203 206 208 210 217 227 253 310 342 344
170 194 229 247 244 275 296 289 208 145 183 202 189 166 155 165 173 179 184 187 189 187 187 187 184 180 179 177 170 172 172 175 183 189 190 185 187 195 202 210 225 228 225 231 301 356 5 1 348
181 230 233 262 269 298 268 268 221 193 211 202 183 166 164 175 183 188 189 192 189 186 192 190 188 186 186 180 175 175 174 177 184 192 190 180 181 192 203 211 220 216 213 228 344 6 9 18 20
217 250 252 262 288 267 261 249 235 237 235 164 156 167 176 185 190 193 191 191 189 191 194 193 192 191 187 181 179 180 183 186 188 189 192 187 184 188 199 211 209 206 195 125 37 36 52 58 57
232 243 277 285 284 271 253 269 226 258 197 161 166 181 188 191 191 190 192 195 196 197 196 193 194 194 187 187 186 184 188 187 184 187 191 192 192 190 188 190 166 140 140 100 83 78 80 71 68
277 293 316 287 262 256 211 297 244 264 153 170 181 189 193 197 194 199 199 198 198 199 197 194 195 193 190 190 189 185 186 182 184 190 193 193 196 193 181 155 118 104 107 103 94 84 77 70 66
3 58 324 298 299 295 175 262 276 273 166 187 193 194 199 203 204 206 203 199 196 195 196 195 196 193 192 190 184 177 177 177 184 187 191 195 196 186 151 121 104 103 100 96 90 81 74 62 64
25 93 236 301 359 27 88 257 278 265 189 200 202 203 206 209 215 214 206 201 197 195 192 192 195 188 187 181 169 158 154 159 164 166 169 166 155 141 120 103 95 94 84 75 81 67 76 65 59
229 223 252 281 316 7 342 280 287 255 208 212 210 210 212 214 220 214 207 201 196 192 189 191 192 180 172 163 147 131 112 107 107 114 121 121 114 112 106 97 90 88 83 75 76 79 64 62 46
196 202 270 273 286 319 298 293 291 276 231 231 226 221 220 223 225 213 206 199 192 190 188 188 188 178 169 165 160 149 130 94 77 85 102 106 107 106 102 101 90 86 89 94 102 95 71 44 19
194 229 274 292 336 330 307 297 288 267 228 230 227 224 226 231 228 214 206 201 198 195 190 186 188 178 172 164 137 109 99 86 79 85 90 101 105 106 107 107 106 100 101 93 88 109 103 53 30
196 200 231 265 337 350 312 311 304 300 277 265 252 241 235 229 225 217 209 206 198 195 189 186 178 167 155 134 117 108 92 81 80 94 95 99 105 105 111 116 116 114 114 109 102 110 121 118 53
234 223 208 228 355 299 20 299 294 300 320 300 292 282 260 243 230 221 211 202 195 188 167 158 149 143 137 135 140 140 134 133 136 126 117 111 109 111 115 117 118 120 123 122 115 101 111 121 114
213 210 192 205 192 272 278 195 281 331 323 317 330 331 303 275 240 220 197 166 136 125 124 121 116 111 111 114 124 122 120 122 128 124 121 110 104 111 120 122 122 122 121 119 113 108 104 106 122
180 72 48 55 96 230 229 175 269 320 315 320 336 347 334 325 53 82 87 97 98 98 101 104 104 98 96 98 106 126 133 138 140 136 127 115 109 104 112 117 117 120 119 120 122 120 120 119 122
136 110 19 352 31 237 227 181 244 328 357 350 352 5 21 55 77 86 89 92 95 95 97 100 103 103 103 102 99 115 129 136 137 134 130 128 120 110 109 112 115 117 122 127 127 119 117 121 121
185 152 167 200 215 258 228 211 222 38 47 45 48 50 58 69 77 82 85 88 89 89 90 95 101 106 105 105 104 105 111 116 119 120 125 123 121 117 113 110 109 105 105 103 94 80 73 72 66
168 189 185 161 176 224 264 249 38 58 60 59 60 62 65 71 75 77 76 77 79 80 81 87 95 94 94 100 107 108 107 111 112 110 106 103 106 109 103 95 87 81 80 82 82 73 66 64 52
165 153 112 141 159 213 255 228 230 326 54 67 66 68 70 72 74 74 74 75 75 77 77 77 83 87 87 90 95 102 102 106 109 107 102 99 92 89 90 85 83 79 79 84 83 79 68 62 42
111 117 130 139 163 166 215 248 244 261 157 106 84 74 73 73 75 76 76 76 78 79 80 83 85 88 88 89 91 93 93 94 96 96 95 93 89 90 92 95 94 91 87 84 85 77 62 49 25
120 143 148 155 199 177 175 228 328 150 123 111 96 79 72 72 73 77 80 82 82 83 84 85 87 90 92 95 94 92 91 91 90 90 90 92 91 92 100 103 102 99 93 86 83 70 52 34 10
Height
1522 1522 1523 1524 1527 1539 1537 1526 1517 1512 1510 1508 1509 1511 1514 1516 1519 1523 1517 1518 1521 1524 1527 1530 1534 1537 1540 1542 1544 1546 1548 1550 1552 1553 1555 1556 1558 1559 1561 1562 1563 1565 1566 1567 1568 1568 1569 1569 1569
1521 1522 1524 1524 1536 1547 1538 1522 1516 1510 1508 1508 1510 1511 1513 1514 1514 1515 1515 1518 1522 1525 1527 1530 1533 1537 1540 1543 1545 1547 1549 1550 1552 1554 1555 1557 1558 1560 1561 1563 1564 1565 1566 1567 1568 1569 1569 1569 1569
1520 1521 1523 1527 1539 1542 1528 1514 1510 1507 1507 1508 1511 1512 1513 1514 1514 1515 1517 1520 1523 1525 1528 1530 1533 1537 1540 1542 1545 1547 1549 1551 1552 1554 1555 1557 1559 1560 1562 1563 1564 1565 1566 1567 1568 1568 1569 1569 1569
1519 1521 1523 1532 1536 1529 1519 1510 1507 1507 1508 1509 1511 1514 1514 1515 1515 1517 1518 1520 1523 1525 1528 1530 1533 1536 1539 1542 1544 1546 1549 1551 1552 1554 1556 1557 1559 1560 1561 1563 1564 1565 1566 1567 1567 1568 1568 1568 1569
1518 1520 1529 1538 1532 1521 1513 1508 1507 1507 1507 1509 1512 1515 1515 1515 1515 1517 1519 1521 1523 1525 1528 1531 1533 1536 1538 1541 1543 1546 1548 1550 1552 1554 1556 1557 1559 1560 1561 1562 1564 1565 1566 1566 1567 1568 1568 1568 1568
1517 1520 1537 1540 1529 1516 1509 1505 1506 1507 1507 1509 1512 1515 1515 1515 1516 1518 1520 1522 1524 1526 1528 1531 1533 1536 1538 1540 1543 1545 1547 1549 1551 1553 1555 1557 1558 1559 1561 1562 1563 1565 1566 1566 1567 1568 1568 1568 1568
1517 1524 1532 1529 1523 1515 1506 1503 1503 1503 1505 1507 1509 1514 1514 1514 1516 1518 1520 1522 1524 1527 1529 1531 1533 1535 1538 1540 1542 1545 1547 1549 1551 1553 1554 1556 1557 1559 1560 1562 1563 1564 1565 1566 1567 1567 1568 1568 1568
1514 1520 1524 1524 1519 1511 1503 1501 1500 1500 1502 1505 1508 1510 1509 1511 1515 1518 1520 1522 1524 1526 1528 1530 1532 1535 1537 1539 1542 1544 1546 1549 1551 1552 1554 1555 1557 1558 1560 1561 1562 1563 1564 1565 1566 1567 1567 1568 1568
1513 1522 1526 1519 1514 1506 1501 1501 1499 1498 1500 1502 1505 1507 1507 1509 1513 1516 1518 1520 1522 1525 1527 1529 1531 1534 1536 1539 1541 1544 1546 1548 1550 1551 1553 1554 1556 1557 1559 1560 1561 1562 1563 1564 1565 1566 1567 1567 1568
1511 1521 1517 1508 1504 1501 1499 1498 1497 1497 1499 1501 1503 1505 1507 1508 1510 1512 1514 1516 1519 1521 1524 1527 1530 1532 1535 1537 1540 1542 1544 1546 1548 1550 1551 1553 1555 1556 1558 1559 1560 1562 1563 1563 1565 1566 1567 1567 1568
1507 1511 1506 1502 1500 1500 1498 1496 1495 1495 1498 1496 1496 1499 1502 1505 1508 1510 1512 1514 1516 1519 1522 1524 1527 1530 1533 1535 1538 1540 1542 1544 1546 1548 1550 1552 1554 1555 1557 1558 1559 1561 1562 1563 1564 1565 1566 1567 1568
1504 1503 1502 1499 1498 1498 1497 1495 1493 1491 1490 1490 1494 1496 1498 1501 1503 1506 1509 1512 1515 1517 1519 1522 1524 1527 1530 1533 1535 1538 1540 1542 1544 1546 1548 1550 1552 1554 1556 1558 1559 1560 1561 1563 1564 1565 1566 1567 1567
1501 1499 1498 1497 1496 1495 1493 1492 1491 1487 1487 1490 1493 1496 1497 1497 1500 1504 1508 1511 1513 1515 1517 1519 1521 1524 1527 1530 1532 1535 1537 1539 1542 1544 1546 1549 1551 1553 1555 1557 1558 1560 1561 1562 1563 1564 1565 1566 1567
1497 1496 1495 1494 1493 1492 1491 1488 1488 1482 1484 1487 1489 1492 1493 1495 1498 1502 1505 1507 1509 1512 1514 1516 1519 1521 1524 1527 1529 1532 1535 1537 1539 1542 1544 1547 1550 1552 1554 1556 1558 1559 1560 1562 1563 1564 1564 1565 1565
1495 1496 1494 1491 1489 1489 1489 1490 1486 1482 1482 1484 1486 1488 1491 1494 1497 1498 1499 1502 1506 1509 1512 1514 1516 1519 1522 1525 1528 1531 1534 1536 1538 1541 1543 1546 1548 1551 1553 1554 1556 1558 1560 1561 1562 1562 1563 1563 1564
1494 1498 1501 1493 1489 1488 1492 1495 1483 1481 1482 1483 1484 1487 1489 1491 1493 1494 1497 1500 1503 1507 1510 1512 1515 1517 1519 1523 1526 1529 1533 1535 1538 1540 1542 1544 1547 1550 1551 1553 1555 1556 1558 1559 1560 1561 1561 1561 1561
1503 1505 1502 1495 1489 1489 1491 1492 1483 1481 1482 1482 1483 1485 1487 1488 1490 1491 1493 1496 1500 1503 1507 1510 1513 1515 1518 1521 1525 1528 1531 1534 1536 1538 1540 1543 1545 1547 1549 1551 1553 1554 1556 1557 1557 1558 1558 1558 1559
1507 1503 1500 1498 1490 1490 1491 1489 1482 1480 1480 1480 1481 1482 1484 1484 1483 1485 1489 1492 1496 1500 1504 1508 1511 1514 1517 1520 1523 1525 1528 1531 1533 1535 1537 1540 1542 1544 1546 1548 1550 1552 1553 1554 1555 1555 1555 1555 1555
1497 1499 1501 1497 1490 1490 1490 1488 1480 1477 1477 1478 1478 1479 1480 1477 1477 1482 1486 1489 1492 1496 1499 1503 1507 1510 1513 1515 1518 1521 1523 1526 1528 1530 1533 1535 1538 1540 1543 1544 1547 1549 1550 1551 1552 1552 1552 1552 1551
1496 1500 1500 1495 1489 1488 1489 1487 1477 1473 1473 1472 1473 1473 1474 1473 1475 1478 1481 1484 1486 1489 1494 1499 1503 1506 1509 1512 1515 1519 1521 1523 1525 1527 1529 1531 1533 1536 1539 1542 1544 1546 1547 1548 1548 1549 1548 1547 1546
1496 1499 1497 1497 1493 1489 1490 1491 1479 1470 1470 1470 1470 1469 1469 1469 1468 1470 1474 1478 1482 1484 1488 1493 1497 1502 1506 1509 1512 1515 1518 1520 1523 1525 1526 1527 1530 1533 1536 1538 1540 1542 1543 1544 1544 1544 1543 1542 1541
1497 1490 1492 1493 1500 1506 1498 1510 1487 1474 1472 1468 1468 1467 1465 1463 1464 1466 1469 1473 1477 1480 1485 1490 1495 1499 1503 1506 1508 1510 1513 1517 1520 1522 1524 1525 1527 1530 1533 1535 1537 1539 1540 1540 1541 1541 1540 1539 1537
1487 1484 1488 1491 1497 1505 1502 1508 1496 1480 1476 1470 1467 1466 1463 1460 1460 1462 1466 1470 1474 1479 1483 1488 1493 1496 1500 1504 1507 1509 1511 1514 1518 1520 1522 1523 1526 1528 1531 1533 1535 1537 1538 1538 1538 1537 1537 1536 1535
1479 1485 1492 1500 1506 1514 1502 1509 1501 1489 1482 1476 1470 1467 1462 1458 1459 1461 1465 1469 1473 1477 1482 1487 1491 1495 1499 1503 1506 1508 1510 1513 1516 1518 1520 1522 1525 1527 1530 1531 1533 1535 1536 1536 1535 1535 1535 1534 1533
1480 1496 1513 1511 1520 1515 1495 1500 1498 1483 1480 1478 1475 1470 1464 1461 1461 1463 1467 1470 1474 1478 1483 1487 1490 1495 1499 1502 1506 1507 1508 1512 1514 1517 1519 1521 1524 1527 1529 1531 1533 1534 1534 1534 1534 1534 1533 1533 1532
1481 1490 1509 1516 1516 1508 1496 1499 1491 1482 1480 1479 1476 1473 1469 1467 1467 1469 1472 1474 1478 1481 1485 1488 1492 1495 1498 1501 1504 1508 1510 1512 1514 1517 1520 1522 1524 1526 1529 1531 1532 1533 1533 1533 1533 1533 1532 1531 1531
1477 1484 1481 1498 1503 1507 1502 1494 1487 1482 1480 1480 1479 1476 1474 1473 1474 1475 1477 1479 1482 1485 1488 1491 1494 1496 1498 1501 1503 1507 1511 1513 1515 1518 1521 1523 1525 1527 1529 1530 1531 1532 1532 1532 1532 1531 1530 1529 1528
1464 1472 1489 1499 1510 1511 1498 1496 1495 1487 1483 1482 1481 1481 1480 1479 1479 1480 1482 1484 1486 1488 1491 1494 1496 1497 1500 1503 1506 1509 1512 1514 1517 1520 1522 1524 1527 1528 1529 1530 1531 1531 1531 1530 1530 1529 1527 1526 1524
1468 1473 1481 1492 1493 1503 1507 1502 1487 1485 1483 1483 1484 1484 1484 1484 1484 1485 1486 1488 1490 1492 1495 1497 1499 1501 1503 1506 1508 1511 1514 1517 1519 1521 1523 1526 1527 1528 1530 1530 1530 1530 1529 1528 1527 1526 1524 1522 1520
1460 1467 1477 1486 1491 1493 1497 1500 1484 1482 1482 1484 1486 1487 1488 1488 1489 1490 1491 1492 1494 1495 1497 1499 1501 1503 1506 1508 1511 1513 1516 1519 1521 1523 1525 1527 1528 1529 1529 1529 1529 1528 1527 1525 1524 1522 1520 1518 1516